Location: Newark
(48.5156°N, 1.8989°W)
Time: 05:59:18
(UTC+00:00)

Transit 4A - Pass Details

Date: 25 November 2019
Orbit: 870 x 975 km, 66.8° (Epoch: 14 December)

Event Time Altitude Azimuth Distance (km) Brightness Sun altitude
Exits shadow 02:48:05 14° 53° (NE) 2,266 10.4 -45.6°
Drops below altitude 10° 02:49:28 10° 65° (ENE) 2,544 10.8 -45.4°
Sets 02:52:48 0° 84° (E) 3,469 11.6 -44.9°
